| time (UTC) | temp F | wind direction | speed knots | gust knots | rain 1hr in | rain 24hr in | rain mn in | humidity % | barometer mb |
| 20260505101023 | 44 | 217 | 6.1 | 13.0 | 0.00 | 0.05 | 0.00 | 89 | 1007.9 |
| 20260505100137 | 44 | 210 | 7.0 | 16.5 | 0.00 | 0.06 | 0.00 | 90 | 1008.0 |
| 20260505095115 | 43 | 216 | 4.3 | 8.7 | 0.00 | 0.07 | 0.00 | 91 | 1007.7 |
| 20260505094027 | 43 | 228 | 5.2 | 7.8 | 0.00 | 0.08 | 0.00 | 92 | 1007.8 |
| 20260505093036 | 42 | 215 | 2.6 | 6.1 | 0.00 | 0.09 | 0.00 | 93 | 1007.7 |
| 20260505092107 | 42 | 212 | 3.5 | 8.7 | 0.00 | 0.09 | 0.00 | 93 | 1007.4 |
| 20260505091232 | 41 | 217 | 3.5 | 6.1 | 0.00 | 0.10 | 0.00 | 93 | 1007.5 |
| 20260505090058 | 41 | 214 | 3.5 | 6.1 | 0.00 | 0.11 | 0.00 | 93 | 1007.3 |
| 20260505085154 | 41 | 207 | 2.6 | 6.1 | 0.00 | 0.12 | 0.00 | 93 | 1007.2 |
| 20260505084202 | 41 | 214 | 2.6 | 6.1 | 0.00 | 0.13 | 0.00 | 92 | 1007.3 |
| 20260505083042 | 42 | 198 | 1.7 | 4.3 | 0.00 | 0.16 | 0.00 | 92 | 1007.2 |
| 20260505082021 | 41 | 209 | 2.6 | 6.1 | 0.00 | 0.18 | 0.00 | 92 | 1007.4 |
| 20260505081034 | 42 | 212 | 3.5 | 7.8 | 0.00 | 0.21 | 0.00 | 92 | 1007.3 |
| 20260505080221 | 42 | 225 | 2.6 | 4.3 | 0.00 | 0.23 | 0.00 | 91 | 1007.3 |
| 20260505075042 | 42 | 214 | 2.6 | 6.1 | 0.00 | 0.25 | 0.00 | 91 | 1007.4 |
| 20260505074035 | 42 | 219 | 3.5 | 6.1 | 0.00 | 0.27 | 0.00 | 91 | 1007.2 |
| 20260505073044 | 42 | 224 | 3.5 | 6.1 | 0.00 | 0.29 | 0.00 | 91 | 1007.3 |
| 20260505072107 | 42 | 219 | 4.3 | 7.8 | 0.00 | 0.31 | 0.00 | 90 | 1006.9 |
| 20260505071126 | 42 | 231 | 2.6 | 6.1 | 0.00 | 0.33 | 0.00 | 91 | 1006.9 |
| 20260505070107 | 42 | 232 | 2.6 | 4.3 | 0.00 | 0.35 | 0.00 | 91 | 1006.8 |
| 20260505065027 | 42 | 214 | 2.6 | 7.8 | 0.00 | 0.35 | 0.00 | 91 | 1006.7 |
| 20260505064111 | 42 | 227 | 4.3 | 7.8 | 0.00 | 0.35 | 0.00 | 90 | 1006.7 |
| 20260505063048 | 42 | 214 | 3.5 | 7.8 | 0.00 | 0.35 | 0.00 | 90 | 1006.5 |
| 20260505062028 | 43 | 208 | 3.5 | 8.7 | 0.00 | 0.36 | 0.00 | 90 | 1006.2 |
| 20260505061040 | 43 | 231 | 3.5 | 6.1 | 0.00 | 0.38 | 0.00 | 89 | 1006.2 |
| 20260505060152 | 43 | 230 | 3.5 | 7.8 | 0.00 | 0.40 | 0.00 | 89 | 1006.1 |
| 20260505055132 | 43 | 237 | 3.5 | 10.4 | 0.00 | 0.42 | 0.00 | 89 | 1005.9 |
| 20260505054041 | 43 | 233 | 5.2 | 10.4 | 0.00 | 0.43 | 0.00 | 89 | 1005.8 |
| 20260505053022 | 43 | 236 | 7.8 | 14.8 | 0.00 | 0.45 | 0.00 | 89 | 1005.7 |
| 20260505052032 | 43 | 218 | 6.1 | 13.0 | 0.00 | 0.45 | 0.00 | 88 | 1005.6 |
| 20260505051043 | 43 | 242 | 5.2 | 12.2 | 0.00 | 0.47 | 0.00 | 88 | 1005.6 |
| 20260505041048 | 44 | 233 | 6.1 | 12.2 | 0.00 | 0.53 | 0.00 | 87 | 1004.8 |
| 20260505040027 | 44 | 213 | 5.2 | 13.0 | 0.00 | 0.54 | 0.00 | 87 | 1004.8 |
| 20260505035038 | 44 | 243 | 6.1 | 13.0 | 0.00 | 0.56 | 0.00 | 86 | 1004.7 |
| 20260505034121 | 44 | 262 | 6.1 | 13.0 | 0.00 | 0.57 | 0.00 | 86 | 1004.6 |
| 20260505033132 | 44 | 233 | 6.1 | 12.2 | 0.00 | 0.58 | 0.00 | 85 | 1004.3 |
| 20260505032116 | 45 | 241 | 3.5 | 10.4 | 0.00 | 0.60 | 0.00 | 85 | 1004.3 |
| 20260505031026 | 45 | 285 | 5.2 | 10.4 | 0.00 | 0.62 | 0.00 | 84 | 1004.1 |
| 20260505030154 | 45 | 255 | 7.0 | 14.8 | 0.00 | 0.63 | 0.00 | 84 | 1003.7 |
| 20260505025045 | 45 | 230 | 7.0 | 14.8 | 0.00 | 0.64 | 0.63 | 84 | 1003.8 |
| 20260505024114 | 46 | 226 | 6.1 | 14.8 | 0.00 | 0.66 | 0.63 | 83 | 1003.6 |
| 20260505023054 | 46 | 238 | 9.6 | 16.5 | 0.00 | 0.68 | 0.63 | 83 | 1003.4 |
| 20260505022116 | 46 | 218 | 7.0 | 14.8 | 0.00 | 0.69 | 0.63 | 83 | 1003.3 |
| 20260505021134 | 46 | 233 | 6.1 | 13.0 | 0.00 | 0.71 | 0.63 | 83 | 1003.3 |
| 20260505020045 | 46 | 239 | 5.2 | 13.0 | 0.00 | 0.73 | 0.63 | 82 | 1003.2 |
| 20260505015055 | 46 | 257 | 6.1 | 13.0 | 0.00 | 0.75 | 0.63 | 82 | 1003.1 |
| 20260505014026 | 46 | 215 | 7.0 | 13.0 | 0.00 | 0.77 | 0.63 | 81 | 1002.9 |
| 20260505013122 | 46 | 242 | 7.0 | 12.2 | 0.00 | 0.78 | 0.63 | 81 | 1002.7 |
| 20260505012017 | 47 | 227 | 7.8 | 13.0 | 0.00 | 0.81 | 0.63 | 80 | 1002.6 |
| 20260505011100 | 47 | 247 | 8.7 | 20.9 | 0.00 | 0.85 | 0.63 | 79 | 1002.5 |
| 20260505010042 | 47 | 210 | 7.8 | 23.5 | 0.00 | 0.88 | 0.63 | 79 | 1002.4 |
| 20260505005019 | 47 | 235 | 6.1 | 12.2 | 0.00 | 0.91 | 0.63 | 79 | 1002.3 |
| 20260505004030 | 47 | 229 | 7.8 | 14.8 | 0.00 | 0.93 | 0.63 | 78 | 1002.2 |
| 20260505003051 | 47 | 234 | 7.8 | 19.1 | 0.00 | 0.96 | 0.63 | 78 | 1001.9 |
| 20260505002101 | 47 | 215 | 9.6 | 19.1 | 0.00 | 0.99 | 0.63 | 77 | 1001.7 |
| 20260505001032 | 47 | 243 | 8.7 | 18.2 | 0.00 | 1.02 | 0.63 | 76 | 1001.5 |
| 20260505000043 | 48 | 237 | 8.7 | 20.9 | 0.00 | 1.03 | 0.63 | 75 | 1001.4 |
| 20260504235024 | 48 | 237 | 8.7 | 14.8 | 0.00 | 1.06 | 0.63 | 73 | 1001.1 |
| 20260504234035 | 49 | 225 | 8.7 | 16.5 | 0.00 | 1.07 | 0.63 | 72 | 1000.8 |
| 20260504233045 | 49 | 220 | 7.8 | 16.5 | 0.00 | 1.08 | 0.63 | 72 | 1000.7 |
| 20260504232025 | 48 | 231 | 9.6 | 18.2 | 0.00 | 1.10 | 0.63 | 71 | 1000.6 |
| 20260504231037 | 49 | 226 | 8.7 | 16.5 | 0.00 | 1.13 | 0.63 | 69 | 1000.4 |
| 20260504230106 | 50 | 204 | 9.6 | 18.2 | 0.00 | 1.16 | 0.63 | 66 | 1000.2 |
| 20260504225100 | 50 | 232 | 9.6 | 25.2 | 0.00 | 1.19 | 0.63 | 63 | 1000.0 |
| 20260504224042 | 50 | 226 | 8.7 | 19.1 | 0.00 | 1.23 | 0.63 | 64 | 1000.0 |
| 20260504223121 | 50 | 221 | 10.4 | 18.2 | 0.00 | 1.25 | 0.63 | 63 | 1000.0 |
| 20260504222100 | 50 | 223 | 9.6 | 18.2 | 0.00 | 1.26 | 0.63 | 62 | 1000.0 |
| 20260504221041 | 51 | 246 | 8.7 | 22.6 | 0.00 | 1.27 | 0.63 | 59 | 999.8 |
| 20260504220021 | 52 | 244 | 12.2 | 25.2 | 0.00 | 1.29 | 0.63 | 57 | 999.8 |
| 20260504215031 | 51 | 238 | 12.2 | 22.6 | 0.00 | 1.31 | 0.63 | 58 | 999.8 |
| 20260504214042 | 51 | 198 | 13.9 | 25.2 | 0.00 | 1.33 | 0.63 | 55 | 999.7 |
| 20260504213124 | 52 | 225 | 11.3 | 25.2 | 0.00 | 1.35 | 0.63 | 53 | 999.5 |
| 20260504212105 | 53 | 234 | 13.0 | 26.9 | 0.00 | 1.36 | 0.63 | 53 | 999.6 |
| 20260504211117 | 53 | 205 | 9.6 | 22.6 | 0.00 | 1.40 | 0.63 | 57 | 999.5 |
| 20260504210025 | 54 | 258 | 11.3 | 20.9 | 0.00 | 1.43 | 0.63 | 56 | 999.1 |
| 20260504205055 | 54 | 234 | 8.7 | 18.2 | 0.00 | 1.45 | 0.63 | 56 | 999.3 |
| 20260504204118 | 56 | 225 | 9.6 | 22.6 | 0.00 | 1.47 | 0.63 | 53 | 999.2 |
| 20260504203233 | 55 | 209 | 9.6 | 22.6 | 0.00 | 1.50 | 0.63 | 54 | 999.0 |
| 20260504202038 | 54 | 201 | 9.6 | 16.5 | 0.00 | 1.52 | 0.63 | 55 | 999.1 |
| 20260504201122 | 55 | 218 | 11.3 | 27.8 | 0.00 | 1.55 | 0.63 | 53 | 999.1 |
| 20260504200131 | 56 | 237 | 8.7 | 19.1 | 0.00 | 1.57 | 0.63 | 52 | 998.8 |
| 20260504195039 | 57 | 233 | 7.0 | 16.5 | 0.00 | 1.60 | 0.63 | 52 | 998.8 |
| 20260504194050 | 57 | 237 | 7.8 | 19.1 | 0.00 | 1.62 | 0.63 | 51 | 998.7 |
| 20260504193030 | 57 | 232 | 9.6 | 18.2 | 0.00 | 1.63 | 0.63 | 50 | 998.6 |
| 20260504192113 | 56 | 219 | 10.4 | 23.5 | 0.00 | 1.63 | 0.63 | 52 | 998.6 |
| 20260504191124 | 55 | 218 | 8.7 | 16.5 | 0.00 | 1.65 | 0.63 | 55 | 998.5 |
| 20260504190124 | 56 | 190 | 7.8 | 16.5 | 0.00 | 1.66 | 0.63 | 53 | 998.5 |
| 20260504185115 | 56 | 209 | 9.6 | 20.9 | 0.00 | 1.66 | 0.63 | 52 | 998.2 |
| 20260504184023 | 57 | 252 | 7.0 | 23.5 | 0.00 | 1.67 | 0.63 | 50 | 998.3 |
| 20260504183035 | 56 | 201 | 7.8 | 13.0 | 0.00 | 1.68 | 0.63 | 51 | 998.2 |
| 20260504182147 | 56 | 220 | 7.0 | 16.5 | 0.00 | 1.68 | 0.63 | 52 | 998.3 |
| 20260504181045 | 56 | 254 | 9.6 | 23.5 | 0.00 | 1.68 | 0.63 | 54 | 998.3 |
| 20260504180036 | 56 | 180 | 8.7 | 20.9 | 0.00 | 1.69 | 0.63 | 56 | 998.4 |
| 20260504175017 | 55 | 237 | 7.8 | 14.8 | 0.00 | 1.69 | 0.63 | 57 | 998.2 |
| 20260504174027 | 55 | 266 | 9.6 | 20.9 | 0.00 | 1.69 | 0.63 | 59 | 998.3 |
| 20260504173112 | 54 | 244 | 9.6 | 25.2 | 0.00 | 1.70 | 0.63 | 60 | 998.3 |
| 20260504172019 | 55 | 253 | 10.4 | 23.5 | 0.00 | 1.70 | 0.63 | 59 | 998.1 |
| 20260504171030 | 55 | 221 | 7.8 | 22.6 | 0.00 | 1.70 | 0.63 | 55 | 998.1 |
| 20260504160105 | 53 | 220 | 6.1 | 12.2 | 0.00 | 1.76 | 0.63 | 65 | 997.4 |
| 20260504151128 | 51 | 248 | 8.7 | 25.2 | 0.00 | 1.79 | 0.63 | 70 | 997.0 |
| 20260504141041 | 46 | 249 | 7.8 | 13.0 | 0.00 | 1.79 | 0.63 | 80 | 996.4 |
| 20260504110226 | 40 | 290 | 6.1 | 13.0 | 0.04 | 1.77 | 0.61 | 96 | 992.4 |